Погода Красный Яр

Погода Красный Яр : погода сейчас, прогноз погоды и архив. Всё, что Вы хотите узнать о погоде Красный Яр!

Хотите узнать прогноз погоды Красный Яр? Тогда Вам сюда: Погода Красный Яр

Поиск расширенной информации на нашем сайте:

Другие новости

Новости СМИ2

Главная страница сайта

Новости сайта

03.07.2017

Напоминаем, что на нашем специализированном сайте Метеоцентр.Азия вы можете получить высокодетализированные автоматические прогнозы погоды по пунктам России, СНГ и мира в авиационном формате (включающие направление и скорость ветра, видимость, явления погоды, количество и форму облачности, нижнюю и верхнюю границу облачности).

Рекомендуем: Самая детальная информация у нас на сайте: усыновление - смотрите тут.

Погода Красный Яр - сегодня

Время (UTC), дата Ветер
(°,м/с) 
Видим.   Явления Облачность Т
(°С)
Тd
(°С)
f(%) Тe
(°С)
Pmin
(гПа)
dP
(гПа)
Po
(мм)
O2
(г/м3)
Тmin Tmax R s Состояние
почвы
18 15.04.18 290 (З) 20000 м  {ливн. осадки}  8/8 600 м кучево-дожд. 
[Cb cap]
+1.2 +0.7 96 +2  1011  746  299           
00 16.04.18 210 (ЮЗ) 20000 м    8/0 верхняя 
[Cs]
+6.4 +3.2 80 +5  1011.9  1.2  747  294           
03 16.04.18 240 (ЮЗ) 20000 м    3/3 600 м 
[Cu hum]
+11.1 +1.9 53 +11  1011.3  -0.3  747  289           
06 16.04.18 260 (З) 20000 м    8/8 600 м кучево-дожд. 
[Cb cap]
+13.3 -2.9 32 +13  1010.3  -0.9  746  287           
12 16.04.18 тихо ()   20000 м    ясно 
-0.1 -3.4 78 -0  1014.1  2.4  748  302           
15 16.04.18 060 (СВ) 20000 м    ясно 
-3.6 -4.8 91 -3  1015.4  1.1  749  306           
18 16.04.18 тихо ()   20000 м    ясно 
-4.2 -4.7 96 -4  1015.9  0.4  750  307           
00 17.04.18 тихо ()   20000 м    4/0 средняя 
[As trans]
+10.3 -1.5 44 +10  1013.4  -1.5  748  291           
03 17.04.18 210 (ЮЗ) 20000 м    6/0 средняя 
[As trans]
+18 -2.4 25 +18  1011.1  -1.9  747  283           
06 17.04.18 210 (ЮЗ) 4{11}  20000 м    6/0 средняя 
[As trans]
+20.8 -0.1 25 +21  1008.2  -2.7  745  279           
12 17.04.18 220 (ЮЗ) 20000 м    ясно 
+7 +0.9 65 +8  1010  1.4  746  293           
15 17.04.18 230 (ЮЗ) 20000 м    ясно 
+3.7 +0.7 81 +5  1011.8  1.4  747  297           
18 17.04.18 040 (СВ) 20000 м    ясно 
-0.3 -0.9 96 1011  -1  746  301           
00 18.04.18 240 (ЮЗ) 20000 м    8/0 средняя 
[Ac As]
+12.3 +0.1 43 +14  1010.2  -0.5  746  288           
03 18.04.18 240 (ЮЗ) 20000 м    8/0 средняя 
[Ac As]
+18 +0.1 30 +19  1008  -1.9  745  281           
06 18.04.18 220 (ЮЗ) 20000 м    8/0 средняя 
[Ac As]
+19.6 +2 31 +20  1006.3  -1.6  743  279           
12 18.04.18 тихо ()   20000 м    5/0 средняя 
[Ac As]
+7.9 +2.5 69 +8  1008.1  1.4  744  291           
15 18.04.18 тихо ()   20000 м    ясно 
+2.9 +1.7 92 +3  1009  0.6  745  297           
18 18.04.18 050 (СВ) 20000 м    ясно 
-0.5 -1 96 1009.5  0.2  745  301           
00 19.04.18 040 (СВ) 20000 м    8/0 верхняя 
[Ci]
+12.7 +3.5 53 +13  1008.2  -0.7  745  286           
03 19.04.18 030 (СВ) 20000 м    6/0 верхняя 
[Ci fib]
+21.6 +2.2 28 +22  1005.8  -1.9  743  277           
06 19.04.18 330 (СЗ) 2{11}  20000 м    9/6 600 м кучево-дожд., верхняя 
[Cb cap|Ci fib]
+21.6 -0.2 23 +22  1004.9  -0.9  743  277           
12 19.04.18 220 (ЮЗ) 20000 м    5/5 600 м 
[Sc]
+13.5 +4.2 53 +14  1010.5  3.6  746  286           
15 19.04.18 тихо ()   20000 м    ясно 
+7.9 +4.7 80 +8  1013.2  2.3  748  292           
18 19.04.18 230 (ЮЗ) 20000 м    ясно 
+7.3 +5.8 90 +7  1013.9  0.6  749  293           
Время (UTC), дата Ветер
(°,м/с) 
Видим.   Явления Облачность Т
(°С)
Тd
(°С)
f(%) Тe
(°С)
Pmin
(гПа)
dP
(гПа)
Po
(мм)
O2
(г/м3)
Тmin Tmax R s Состояние
почвы

Для получения пояснительной информации подведите курсор к названию столбца.

ПОГОДА Красный Яр - архив

Всё, что Вы хотите узнать о погоде Красный Яр - удобно и подробно!

Выберите нужную дату (начиная с 1 января 2015* года) и нажмите кнопку "Найти".
Будут отображены архивные сводки погоды по пункту Красный Яр, начиная с указанной даты.


Отображать данные в формате CSV (для использования в таблицах Excel)


Внимание! Наш архив погоды предназначен исключительно для личного некоммерческого использования в познавательных целях. Если Вам необходимы официальные справки о состоянии погоды (для производственных, юридических, коммерческих и т.п. целей), обращайтесь в органы Росгидромета.

*Примечание: данная дата относится к архиву по метеостанциям СССР (Россия, СНГ, Балтия).
Архив по метеостанциям Зарубежной Европы и Азии (кроме Китая) хранится 10 дней, по другим регионам земного шара (Китай, Африка, Америка, Австралия, Океания) - 1 день.

Красный Яр - район местоположения метеостанции


Название, широта, долгота, высота метеостанции:
Красный Яр 46.5°ш. 135.3°д. 130 м над ур. моря [Российская Федерация]

Дополнительная информация

В oтличие oт бoльшинства пoгoдных сайтoв мы публикуем пoдрoбную метеoинфoрмацию в детальнoм прoфессиoнальнoм фoрмате.

Характеристики температуры и влажнoсти вoздуха измеряются на высoте 2 м в тени вдали oт зданий и деревьев.
Скoрoсть ветра измеряется на высoте 10 м (на урoвне рoста челoвека скoрoсть ветра ниже в 1.5-2 раза). Если метеoстанция нахoдится в гoрoде или в лесу, тo скoрoсть ветра занижена на 2-4 м/с пo сравнению с oткрытым местoм. Скoрoсть ветра над акватoриями крупных рек и oзёр, а также на вершинах хoлмoв на 2-5 м/с выше, чем в oбычных услoвиях.
Атмoсфернoе давление в разных тoчках местнoсти мoжет значительнo oтличаться oт давления на метеoстанции, в зависимoсти oт услoвий рельефа (при пoдъёме на 10 м давление пoнижается примернo на 1 мм рт.ст.).